[[{"header":{"parameterUnit":"m.s-1","parameterCategory":1,"la1":30.2991,"la2":30.254,"lo1":-89.0895,"lo2":-89.0444,"dy":0.0017,"dx":0.0017,"nx":28,"ny":28,"refTime":"2023-07-21T09:00:00:Z","depth":0,"parameterNumber":2,"parameterNumberName":"U-component_of_WINDS"},"data":[0,0,0,0,0,0,0,0,0,0,0,0,0,0,0,0,0,0,0,0,0,0,0,0,0,0,0,0,0,0,0,0,0,0,0,0,0,0,0,0,0,0,0,0,0,0,0,0,0,0,0,0,0,0,0,0,0,0,3.4815,3.4816,0,3.4912,3.4913,3.4914,3.4878,3.4876,3.4874,3.4872,3.4978,3.4983,3.4988,0,0,0,0,0,0,0,0,0,0,0,0,0,3.4605,3.4609,3.4815,3.4816,3.4817,3.4912,3.4913,3.4915,3.4879,3.4876,3.4873,3.4871,3.4976,3.4982,3.4988,0,0,0,0,0,0,0,0,0,0,0,0,0,3.4699,3.4611,3.4815,3.4811,3.4811,3.4912,3.4913,3.4915,3.4879,3.4876,3.4873,3.4869,3.4975,3.4982,3.4989,3.5101,0,0,3.5011,3.5015,0,0,0,0,0,0,0,0,3.4694,3.4707,3.481,3.4811,3.4812,3.4879,3.4878,3.4978,3.488,3.4854,3.4872,3.4868,3.4948,3.4958,3.4983,3.5106,3.5111,3.5012,3.5016,3.502,3.5022,0,0,0,0,0,0,0,3.4687,3.4702,3.4853,3.4812,3.4813,3.4806,3.4816,3.4897,3.4919,3.4856,3.4853,3.4865,3.4948,3.4976,3.4986,3.5112,3.5012,3.5018,3.5023,3.5026,3.5334,3.5338,0,0,0,0,0,0,3.4679,3.4697,3.485,3.4856,3.4743,3.4813,3.4823,3.4861,3.4918,3.4923,3.4868,3.4863,3.4966,3.4977,3.4989,3.5125,3.502,3.5026,3.5031,3.533,3.5335,3.5339,0,0,0,0,0,0,3.4675,3.4693,3.4846,3.4776,3.4795,3.482,3.4863,3.4865,3.4893,3.4927,3.4931,3.4892,3.4963,3.4979,3.5074,3.5129,3.503,3.5036,3.5326,3.5332,3.5337,3.5398,0,0,0,0,0,0,3.4669,3.4692,3.4733,3.4777,3.4799,3.4927,3.4866,3.4869,3.4905,3.49,3.4951,3.4956,3.4962,3.5063,3.5081,3.5137,3.5042,3.5321,3.5329,3.5335,3.5391,3.5405,3.5417,0,0,0,0,0,3.4662,3.4747,3.4735,3.4754,3.485,3.493,3.4943,3.4946,3.4909,3.4952,3.4974,3.4954,3.512,3.5073,3.5093,3.5152,3.5318,3.5327,3.5335,3.5386,3.5402,3.5417,0,0,0,0,0,0,3.4711,3.4753,3.474,3.4842,3.4883,3.4924,3.4978,3.4964,3.5017,3.501,3.5014,3.5026,3.5123,3.5147,3.5094,3.5265,3.5214,3.5227,3.5245,3.5262,3.5274,3.5267,3.5048,0,0,0,0,0,3.4733,3.4792,3.4827,3.4914,3.4934,3.4953,3.4988,3.4986,3.503,3.5047,3.5076,3.512,3.5183,3.5223,3.5282,3.5395,3.5406,3.5446,3.5458,3.5469,3.548,3.5543,3.5561,3.5367,3.5367,3.5367,0,0,3.478,3.4811,3.4848,3.4924,3.4955,3.5019,3.4967,3.5036,3.5084,3.5058,3.5149,3.5172,3.5222,3.5326,3.5374,3.5349,3.5536,3.548,3.5488,3.5493,3.5554,3.5572,3.5588,3.5373,3.5372,3.5371,0,0,3.4899,3.4927,3.5003,3.5035,3.5083,3.5095,3.5113,3.5157,3.5171,3.5261,3.5244,3.5302,3.5409,3.5445,3.5478,3.5613,3.5597,3.5632,3.5699,3.5761,3.5776,3.579,3.5839,3.5856,3.5643,3.5643,3.5643,0,3.4952,3.5045,3.5044,3.5115,3.515,3.5128,3.5206,3.5239,3.5304,3.533,3.5301,3.5435,3.5467,3.558,3.5613,3.564,3.5663,3.5626,3.5773,3.5787,3.58,3.5847,3.5865,3.5647,3.5647,3.5646,3.5646,0,3.5109,3.5174,3.523,3.5291,3.5333,3.5407,3.542,3.5463,3.5459,3.5475,3.5569,3.5607,3.5674,3.57,3.5698,3.5814,3.5798,3.5771,3.572,3.5822,3.5866,3.5884,3.5653,3.5652,3.565,3.5649,0,0,3.526,3.5321,3.5342,3.537,3.5422,3.5473,3.5548,3.5611,3.5648,3.5695,3.5759,3.585,3.5826,3.5863,3.5865,3.5919,3.6025,3.5886,3.5887,3.5911,3.6157,3.6177,3.6197,3.6014,3.6018,3.6021,3.6153,0,3.5383,3.5511,3.5514,3.5633,3.5694,3.5675,3.574,3.578,3.5798,3.5854,3.5874,3.5939,3.5902,3.5924,3.5976,3.6,3.6074,3.5991,3.6076,3.6079,3.6064,3.622,3.6241,3.6364,3.617,3.6173,3.6175,0,3.5544,3.5594,3.5718,3.5762,3.5788,3.5846,3.5905,3.5959,3.6005,3.6014,3.6056,3.605,3.6129,3.6075,3.6185,3.6128,3.6164,3.6181,3.6186,3.6194,3.6133,3.6234,3.6403,3.6422,3.6202,3.62,3.6198,0,3.5643,3.5741,3.5829,3.5854,3.5907,3.5949,3.5973,3.6016,3.6055,3.6107,3.6133,3.6195,3.6229,3.6279,3.6291,3.625,3.6402,3.6348,3.6413,3.6413,3.6446,3.6443,3.6624,3.6468,3.6468,3.6467,3.6467,0,3.578,3.5857,3.5874,3.5928,3.6014,3.6018,3.6105,3.6127,3.6165,3.6225,3.6213,3.627,3.6282,3.6342,3.6352,3.6443,3.6458,3.6469,3.6471,3.647,3.6469,3.6494,3.6486,3.6472,3.6471,3.647,3.6469,0,3.5905,3.5919,3.6013,3.6056,3.6069,3.6131,3.6169,3.6222,3.6238,3.6313,3.6332,3.6358,3.6428,3.6445,3.6529,3.6536,3.6643,3.6637,3.6627,3.6626,3.669,3.6684,3.6893,3.6921,3.6747,3.6748,3.675,0,3.5992,3.605,3.6099,3.6137,3.6164,3.6225,3.6264,3.6272,3.6313,3.6371,3.6418,3.6486,3.6541,3.6655,3.6683,3.6748,3.6743,3.6812,3.6753,3.675,3.6745,3.6741,3.6748,3.6823,3.6825,3.6826,3.6828,0,3.6145,3.6149,3.6204,3.6263,3.631,3.6357,3.6402,3.6435,3.6448,3.6496,3.6567,3.6609,3.6695,3.6764,3.6829,3.6857,3.6846,3.6846,3.6865,3.6864,3.6856,3.6862,3.6658,3.6841,3.684,3.6839,3.6838,3.6838,3.6253,3.6305,3.6348,3.6411,3.6445,3.6488,3.654,3.6562,3.6621,3.6689,3.6691,3.6768,3.6816,3.6902,3.6934,3.6996,3.6975,3.7002,3.7009,3.7015,3.7021,3.6846,3.7008,3.7008,3.7007,3.7007,3.7007,0,3.6406,3.6433,3.6491,3.6553,3.6604,3.6587,3.6636,3.668,3.6748,3.6792,3.6846,3.6928,3.6995,3.7029,3.7096,3.7139,3.7136,3.7157,3.7154,3.7161,3.7035,3.7013,3.7158,3.7158,3.7158,3.7158,3.7158,3.7158,3.6491,3.6578,3.6588,3.6693,3.672,3.6794,3.6824,3.6864,3.6899,3.6991,3.7045,3.7066,3.7107,3.7177,3.7239,3.7247,3.7273,3.7296,3.7302,3.7185,3.7169,3.7155,3.7133,3.7302,3.7302,3.7422,3.7423,3.7424]},{"header":{"parameterUnit":"m.s-1","parameterCategory":1,"la1":30.2991,"la2":30.254,"lo1":-89.0895,"lo2":-89.0444,"dy":0.0017,"dx":0.0017,"nx":28,"ny":28,"refTime":"2023-07-21T09:00:00:Z","depth":0,"parameterNumber":3,"parameterNumberName":"V-component_of_WINDS"},"data":[0,0,0,0,0,0,0,0,0,0,0,0,0,0,0,0,0,0,0,0,0,0,0,0,0,0,0,0,0,0,0,0,0,0,0,0,0,0,0,0,0,0,0,0,0,0,0,0,0,0,0,0,0,0,0,0,0,0,3.4272,3.4272,0,3.4342,3.4342,3.4343,3.4351,3.435,3.4349,3.4348,3.4415,3.4418,3.442,0,0,0,0,0,0,0,0,0,0,0,0,0,3.4138,3.414,3.4272,3.4272,3.4273,3.4342,3.4342,3.4343,3.4351,3.435,3.4349,3.4348,3.4415,3.4417,3.442,0,0,0,0,0,0,0,0,0,0,0,0,0,3.42,3.4141,3.4271,3.4285,3.4287,3.4341,3.4343,3.4344,3.4351,3.435,3.4349,3.4348,3.4414,3.4417,3.4421,3.4464,0,0,3.4432,3.4433,0,0,0,0,0,0,0,0,3.4197,3.4205,3.4282,3.4284,3.4287,3.4336,3.432,3.4384,3.4351,3.4327,3.4348,3.4347,3.439,3.4395,3.441,3.4468,3.447,3.4432,3.4434,3.4436,3.4437,0,0,0,0,0,0,0,3.4193,3.4202,3.4299,3.4283,3.4286,3.4286,3.4294,3.4332,3.4363,3.4329,3.4329,3.4338,3.439,3.4407,3.4412,3.4471,3.4432,3.4435,3.4438,3.4439,3.4564,3.4565,0,0,0,0,0,0,3.4186,3.4199,3.4297,3.4301,3.4238,3.4289,3.4298,3.4321,3.4363,3.4368,3.4339,3.4338,3.4401,3.4408,3.4414,3.4466,3.4436,3.4439,3.4441,3.4563,3.4565,3.4566,0,0,0,0,0,0,3.4184,3.4195,3.4294,3.425,3.4263,3.4293,3.4319,3.4323,3.434,3.437,3.4375,3.435,3.4401,3.4409,3.4452,3.4469,3.4441,3.4444,3.4562,3.4564,3.4565,3.4571,0,0,0,0,0,0,3.418,3.4194,3.4213,3.4251,3.4265,3.4332,3.432,3.4325,3.4347,3.4346,3.4382,3.4387,3.44,3.4446,3.4455,3.4473,3.4447,3.456,3.4563,3.4565,3.4569,3.4573,3.4576,0,0,0,0,0,3.4175,3.4211,3.4214,3.4225,3.4289,3.4333,3.4341,3.4357,3.4348,3.4366,3.4385,3.4386,3.4466,3.445,3.4461,3.448,3.4559,3.4562,3.4564,3.4568,3.4572,3.4576,0,0,0,0,0,0,3.4173,3.4216,3.422,3.427,3.4298,3.4334,3.4357,3.4361,3.4391,3.4389,3.4406,3.4414,3.4455,3.4472,3.4454,3.4523,3.4511,3.4516,3.451,3.4514,3.4517,3.4512,3.445,0,0,0,0,0,3.4179,3.4212,3.4248,3.4288,3.4302,3.4327,3.4347,3.4357,3.4386,3.4397,3.442,3.4446,3.4477,3.4497,3.4527,3.4572,3.4578,3.459,3.4593,3.4596,3.4599,3.4621,3.4626,3.4574,3.4574,3.4574,0,0,3.419,3.4218,3.4238,3.4288,3.4311,3.4343,3.4337,3.4372,3.4395,3.4402,3.4443,3.446,3.4491,3.4534,3.4554,3.4549,3.4615,3.4599,3.4601,3.4603,3.4624,3.4629,3.4634,3.4576,3.4576,3.4575,0,0,3.4227,3.4253,3.4288,3.4311,3.4346,3.4362,3.4371,3.4407,3.4418,3.446,3.4465,3.4492,3.4546,3.4567,3.4584,3.4627,3.4628,3.4636,3.4652,3.4673,3.4677,3.4681,3.4694,3.4699,3.464,3.464,3.464,0,3.4236,3.4287,3.4305,3.434,3.436,3.4369,3.4404,3.4425,3.4467,3.448,3.4474,3.454,3.4562,3.4608,3.4619,3.4634,3.4641,3.4632,3.4676,3.468,3.4683,3.4696,3.4701,3.464,3.464,3.464,3.464,0,3.4295,3.433,3.4354,3.4396,3.4419,3.4454,3.4475,3.4496,3.4503,3.4519,3.456,3.4586,3.4621,3.4633,3.464,3.468,3.4675,3.4673,3.4661,3.4688,3.47,3.4705,3.4641,3.4641,3.4641,3.4641,0,0,3.4333,3.4384,3.4392,3.441,3.4449,3.4475,3.4508,3.4543,3.456,3.4589,3.4615,3.4659,3.4656,3.4676,3.4686,3.4705,3.4734,3.47,3.47,3.4703,3.4777,3.4777,3.4783,3.4736,3.4737,3.4738,3.4773,0,3.4372,3.4434,3.4451,3.4502,3.4533,3.4541,3.4569,3.4595,3.461,3.4637,3.4653,3.4683,3.4678,3.469,3.4709,3.4727,3.4749,3.4725,3.4758,3.4759,3.4749,3.479,3.4791,3.4824,3.4778,3.4779,3.478,0,3.4427,3.4458,3.4512,3.4545,3.4559,3.4584,3.4616,3.4643,3.4671,3.468,3.4702,3.4709,3.4742,3.4729,3.4773,3.4756,3.477,3.4781,3.4782,3.4785,3.477,3.4791,3.4835,3.4839,3.4788,3.4787,3.4787,0,3.4446,3.4501,3.454,3.4555,3.4595,3.4613,3.463,3.4657,3.4676,3.4704,3.4716,3.4746,3.4762,3.4785,3.4799,3.4789,3.484,3.483,3.4847,3.4846,3.4856,3.4855,3.4901,3.4869,3.4869,3.4869,3.4868,0,3.4488,3.452,3.4549,3.4573,3.4608,3.4626,3.466,3.4677,3.4701,3.4726,3.4735,3.4758,3.4777,3.4802,3.4813,3.4846,3.4854,3.486,3.4863,3.4859,3.4858,3.4868,3.4865,3.487,3.487,3.4869,3.4869,0,3.4515,3.4536,3.4578,3.4613,3.4622,3.4646,3.4675,3.4697,3.4712,3.4744,3.4752,3.4776,3.4806,3.4823,3.486,3.4868,3.4903,3.4905,3.4894,3.4895,3.491,3.4908,3.4963,3.497,3.4934,3.4935,3.4935,0,3.4539,3.4564,3.4601,3.4619,3.4637,3.4667,3.4686,3.4704,3.4724,3.4757,3.4774,3.4805,3.483,3.4877,3.4896,3.4924,3.4925,3.4943,3.493,3.4924,3.4923,3.4921,3.4922,3.4944,3.4945,3.4945,3.4945,0,3.4579,3.4588,3.4617,3.4649,3.4673,3.4698,3.4724,3.4738,3.4759,3.4781,3.4812,3.4832,3.487,3.4899,3.4928,3.4943,3.4947,3.4949,3.4954,3.495,3.4942,3.4944,3.4898,3.4948,3.4947,3.4947,3.4947,3.4947,3.4604,3.4626,3.4655,3.4686,3.4708,3.4731,3.4753,3.4771,3.4798,3.4831,3.484,3.4872,3.4897,3.4937,3.4953,3.4976,3.4973,3.4981,3.4983,3.4984,3.4983,3.4939,3.4982,3.4982,3.4982,3.4982,3.4982,0,3.4642,3.4662,3.469,3.4726,3.475,3.4753,3.4781,3.48,3.4829,3.4853,3.4878,3.4912,3.494,3.4962,3.499,3.5005,3.5007,3.5011,3.5009,3.5012,3.4986,3.4978,3.5009,3.5009,3.5009,3.5009,3.5009,3.5009,3.4665,3.4702,3.4714,3.476,3.4779,3.4811,3.4827,3.4847,3.4866,3.4905,3.4929,3.4943,3.4965,3.4995,3.502,3.5025,3.5034,3.5038,3.5043,3.5017,3.5014,3.5012,3.5004,3.504,3.504,3.5068,3.5068,3.5068]}]]